Location: Manchester NH
(43.0000°N, 71.5000°W)
Time: 17:53:21
(UTC-05:00)

Envisat - Visible Passes

Search period start: 20 January 2022 00:00
Search period end: 30 January 2022 00:00
Orbit: 764 x 766 km, 98.2° (Epoch: 20 January)

Date Brightness Start Highest point End Pass type
(mag) Time Alt. Az. Time Alt. Az. Time Alt. Az.
20 Jan 6.0 03:10:16 10° E 03:10:38 10° E 03:11:01 10° E visible
20 Jan 2.9 04:45:15 10° NNE 04:50:22 87° ESE 04:55:27 10° SSW visible
20 Jan 4.6 06:26:23 10° NNW 06:28:38 13° WNW 06:30:54 10° W visible
21 Jan 4.2 04:08:38 10° NNE 04:13:25 40° E 04:18:09 10° SSE visible
21 Jan 3.9 05:48:03 10° N 05:52:13 26° WNW 05:56:23 10° WSW visible
22 Jan 5.4 03:32:45 10° NE 03:36:15 18° E 03:39:44 10° SE visible
22 Jan 3.0 05:10:38 10° N 05:15:35 55° WNW 05:20:32 10° SSW visible
23 Jan 3.2 04:33:41 10° NNE 04:38:46 69° ESE 04:43:49 10° S visible
23 Jan 4.4 06:14:09 10° NNW 06:17:12 16° WNW 06:20:15 10° W visible
24 Jan 4.6 03:57:14 10° NNE 04:01:45 31° E 04:06:14 10° SSE visible
24 Jan 3.6 05:36:14 10° N 05:40:43 32° WNW 05:45:12 10° SW visible
25 Jan 5.7 03:21:48 10° ENE 03:24:32 14° E 03:27:15 10° ESE visible
25 Jan 2.8 04:58:58 10° N 05:04:03 69° WNW 05:09:04 10° SSW visible
26 Jan 3.6 04:22:09 10° NNE 04:27:09 54° E 04:32:06 10° S visible
26 Jan 4.2 06:02:07 10° NNW 06:05:45 20° WNW 06:09:22 10° WSW visible
26 Jan 6.2 17:19:51 10° WSW 17:22:02 13° W 17:24:14 10° WNW visible
27 Jan 5.0 03:45:55 10° NE 03:50:04 25° E 03:54:13 10° SSE visible
27 Jan 3.3 05:24:28 10° N 05:29:13 40° WNW 05:33:55 10° SW visible
28 Jan 6.0 03:11:24 10° ENE 03:12:47 11° E 03:14:10 10° ESE visible
28 Jan 2.9 04:47:21 10° NNE 04:52:28 87° W 04:57:33 10° SSW visible
28 Jan 4.7 06:28:43 10° NW 06:30:41 12° WNW 06:32:38 10° W visible
29 Jan 4.1 04:10:41 10° NNE 04:15:31 42° E 04:20:19 10° S visible
29 Jan 4.0 05:50:13 10° NNW 05:54:17 25° WNW 05:58:20 10° WSW visible
